Regional Weather Roundup
Issued by NWS Green Bay, WI

Home | Current Version | Previous Version | Graphics & Text | Print | Product List | Glossary Off
Versions: 1 2 3 4 5 6 7 8 9 10 11 12 13 14 15 16 17 18 19 20 21 22 23 24 25 26 27 28 29 30 31 32 33 34 35 36 37 38 39 40 41 42 43 44 45 46 47 48 49 50

000
ASUS43 KGRB 090900
RWRGRB

NORTH-CENTRAL AND NORTHEAST WISCONSIN REGIONAL WEATHER ROUNDUP
NATIONAL WEATHER SERVICE GREEN BAY WI
300 AM CST TUE FEB 09 2016

WIZ005-009-010>012-018-019-091000-
NORTH CENTRAL WISCONSIN

CITY           SKY/WX    TMP DP  RH WIND       PRES   REMARKS
IRONWOOD       CLOUDY    12  10  92 N10G18    29.81R WCI  -1
MANITOWISH WTR NOT AVBL
ARBOR VITAE    NOT AVBL
EAGLE RIVER    NOT AVBL
LAND O LAKES   NOT AVBL
RHINELANDER    CLOUDY     9   4  80 VRB3      29.73S
PHILLIPS       NOT AVBL
ANTIGO         NOT AVBL
TOMAHAWK       NOT AVBL
MERRILL        NOT AVBL
$$

WIZ013-073-091000-
NORTHEAST WISCONSIN

CITY           SKY/WX    TMP DP  RH WIND       PRES   REMARKS
IRON MOUNTAIN  PTCLDY    12   4  70 NW12      29.71S WCI  -2
MARINETTE      CLOUDY    16   5  62 N9        29.75S WCI   4
$$

WIZ017-030-035>037-045-091000-
CENTRAL WISCONSIN

CITY           SKY/WX    TMP DP  RH WIND       PRES   REMARKS
MEDFORD        NOT AVBL
WAUSAU         CLOUDY     9   2  73 NW9       29.77R WCI  -4
MOSINEE        NOT AVBL
MARSHFIELD     CLOUDY     8   0  69 NW16      29.80R WCI -10
WISC RAPIDS    CLEAR      8   0  69 NW10      29.83S WCI  -6
STEVENS POINT  NOT AVBL
WAUPACA        NOT AVBL
SHAWANO        NOT AVBL
CLINTONVILLE   NOT AVBL
WAUTOMA        NOT AVBL
$$

WIZ038-039-048-051-091000-
FOX VALLEY

CITY           SKY/WX    TMP DP  RH WIND       PRES   REMARKS
NWS GREEN BAY  CLOUDY    15  11  83 NW10      29.76S WCI   2
APPLETON       NOT AVBL
OSHKOSH        LGT SNOW  14   8  77 NW16      29.76S WCI  -2
FOND DU LAC    LGT SNOW  15  10  80 NW20      29.76S WCI  -2
$$

WIZ022-050-052-091000-
EAST CENTRAL WISCONSIN

CITY           SKY/WX    TMP DP  RH WIND       PRES   REMARKS
EPHRAIM        NOT AVBL
STURGEON BAY   CLOUDY    16   7  67 NW15      29.74F WCI   1
MANITOWOC      NOT AVBL
SHEBOYGAN      LGT SNOW  16  11  80 NW8       29.73S WCI   5
$$

LMZ563-521-522-541>543-091000-
LAKESHORE

STATION/POSITION TIME  TEMP    WIND        PRES    VSBY  WAVE
                       AIR SEA DIR/SP/G                  HT/PER
                 (UTC) (F)     (DEG/KT/KT) (MB)    (MI)  (FT/S)
SHEBOYGAN LKSHOR 0800   19     330/ 14/ 16 1008.0R
KEWAUNEE LKSHORE 0800   16     330/  6/ 11 1006.4R
ALGOMA MARINA    0811          320/ 10/ 14   N/A
NORTHPORT PIER   0805   17     320/ 21     1006.4R
CHAMBERS ISLAND  0800   16     310/ 16/ 22 1006.8F
MENOMINEE LKSHOR 0800   16     310/ 11     1006.4R
$$



USA.gov is the U.S. government's official web portal to all federal, state and local government web resources and services.